Regional Weather Roundup
Issued by NWS

Home | Current Version | Previous Version | Graphics & Text | Print | Product List | Glossary On
Versions: 1 2 3 4 5 6 7 8 9 10 11 12 13 14 15 16 17 18 19 20 21 22 23 24 25 26 27 28 29 30 31 32 33 34 35 36 37 38 39 40 41 42 43 44 45 46 47 48 49 50
000
ASUS44 KMEG 290200
RWRTN
TENNESSEE HOURLY STATE WEATHER ROUNDUP
NATIONAL WEATHER SERVICE MEMPHIS TN
900 PM CDT THU APR 28 2016

TNZ002-004-019-021-049-052-054-088>092-290300-
WEST TENNESSEE

CITY           SKY/WX    TMP DP  RH WIND       PRES   REMARKS
MEMPHIS INTL   PTCLDY    71  53  52 S5        29.95S
NWS MEMPHIS      N/A     68 N/A N/A MISG        N/A
JACKSON        CLEAR     65  56  72 CALM      29.96R
DYERSBURG      CLEAR     66  52  59 CALM      29.98R
UNION CITY     CLEAR     66  52  59 CALM      29.96R
LEXINGTON      CLEAR     64  59  82 CALM      29.97R
$$

TNZ008-025-027-028-033-062-065-066-290300-
NORTH MIDDLE TENNESSEE

CITY           SKY/WX    TMP DP  RH WIND       PRES   REMARKS
NASHVILLE      CLEAR     74  50  42 CALM      29.97R
CLARKSVILLE    CLEAR     69  49  48 NW5       29.97R
COOKEVILLE     CLEAR     61  55  82 CALM      29.97R
CROSSVILLE     CLEAR     67  57  70 W5        30.01R
$$

TNZ061-075-076-078-094-096-097-290300-
SOUTH MIDDLE TENNESSEE

CITY           SKY/WX    TMP DP  RH WIND       PRES   REMARKS
TULLAHOMA      CLEAR     64  57  77 CALM      30.00R
WINCHESTER     CLEAR     64  59  82 CALM      29.99R
MCMINNVILLE    CLEAR     68  55  64 W3        29.98R
COLUMBIA       CLEAR     68  61  77 CALM      29.97R
SHELBYVILLE    CLEAR     64  57  77 CALM      29.99R
$$

TNZ017-018-042-046-047-290300-
NORTHEAST TENNESSEE

CITY           SKY/WX    TMP DP  RH WIND       PRES   REMARKS
TRI CITIES     PTCLDY    68  55  63 SW5       29.94R
$$

TNZ012-013-036-069-073-074-290300-
CENTRAL EAST TENNESSEE

CITY           SKY/WX    TMP DP  RH WIND       PRES   REMARKS
KNOXVILLE      CLEAR     71  58  63 CALM      29.94R
OAK RIDGE      CLEAR     72  57  59 CALM      29.95R
GATLINBURG     CLEAR     68  57  68 CALM      29.93R
$$

TNZ083-085-099-290300-
SOUTHEAST TENNESSEE

CITY           SKY/WX    TMP DP  RH WIND       PRES   REMARKS
CHATTANOOGA    CLEAR     74  56  53 W5        29.95R
$$

SKY/WX REPORTED AS FAIR MEANS FEW OR NO CLOUDS BELOW
12 THOUSAND FEET.





USA.gov is the U.S. government's official web portal to all federal, state and local government web resources and services.